Location: Applecreek Village
(41.3528°N, 81.4956°W)
Time: 11:49:48
(UTC+00:00)

Tiangong - Visible Passes

Search period start: 11 October 2024 00:00
Search period end: 21 October 2024 00:00
Orbit: 372 x 377 km, 41.5° (Epoch: 11 October)

Date Brightness Start Highest point End Pass type
(mag) Time Alt. Az. Time Alt. Az. Time Alt. Az.
17 Oct -0.2 10:49:32 10° SSW 10:52:07 25° SSE 10:54:43 10° E visible
18 Oct 0.4 09:47:58 14° SSE 09:48:18 14° SSE 09:50:04 10° ESE visible
19 Oct -0.9 10:19:07 24° SSW 10:20:19 34° SSE 10:23:08 10° E visible
20 Oct 1.1 09:18:03 12° ESE 09:18:03 12° ESE 09:18:29 10° E visible
20 Oct -2.1 10:49:58 16° WSW 10:52:19 71° S 10:55:22 10° E visible
